Location: Newark
(49.1000°N, 0.4667°W)
Time: 20:34:25
(UTC+00:00)

XW-2A - Visible Passes

Search period start: 03 July 2020 00:00
Search period end: 13 July 2020 00:00
Orbit: 428 x 445 km, 97.3° (Epoch: 03 July)

Date Brightness Start Highest point End Pass type
(mag) Time Alt. Az. Time Alt. Az. Time Alt. Az.
04 Jul ? 20:59:43 10° SSW 21:02:34 25° W 21:05:25 10° NW visible
06 Jul ? 21:14:54 10° SW 21:17:12 17° W 21:19:32 10° NW visible
08 Jul ? 21:30:30 10° WSW 21:31:52 12° W 21:33:14 10° WNW visible
09 Jul ? 20:49:33 10° SSW 20:52:37 32° W 20:55:41 10° NNW visible
11 Jul ? 21:04:31 10° SSW 21:07:13 22° W 21:09:55 10° NW visible
